STARLETTE 1 07646U 75010A 25308.18882815 -.00000142 00000+0 28799-5 0 9992 2 07646 49.8235 272.7068 0205662 39.7318 321.8438 13.82346069563410 LAGEOS 1 1 08820U 76039A 25308.12533634 .00000018 00000+0 00000+0 0 9995 2 08820 109.8398 102.2623 0044669 350.4527 175.3762 6.38664846898769 AJISAI (EGS) 1 16908U 86061A 25308.12437683 -.00000087 00000+0 72739-4 0 9994 2 16908 50.0066 119.4566 0011145 328.4739 141.2935 12.44514141452365 COSMOS 1989 (ETALON 1) 1 19751U 89001C 25307.59227914 .00000020 00000+0 00000+0 0 9997 2 19751 64.8149 79.9184 0023432 216.9698 155.6959 2.13155935286561 COSMOS 2024 (ETALON 2) 1 20026U 89039C 25307.65292431 -.00000011 00000+0 00000+0 0 9999 2 20026 65.0729 318.3013 0020435 214.4020 323.3916 2.13204432283693 LAGEOS 2 1 22195U 92070B 25307.70177287 -.00000009 00000+0 00000+0 0 9991 2 22195 52.6708 49.1347 0137820 88.8631 63.2835 6.47293461780826 STELLA 1 22824U 93061B 25308.19252830 -.00000020 00000+0 10128-4 0 9993 2 22824 98.8066 6.2659 0006637 162.4222 268.2939 14.27461731672679 LARETS 1 27944U 03042F 25308.16296743 .00000089 00000+0 26621-4 0 9998 2 27944 98.3878 101.0223 0012727 23.9797 336.1994 14.63804842180448 LARES 1 38077U 12006A 25308.13265265 -.00000033 00000+0 33804-4 0 9990 2 38077 69.4908 316.6612 0011396 257.8283 102.1467 12.54932051628833 LARES-2 1 53105U 22080A 25298.39260325 -.00000022 00000+0 00000+0 0 9995 2 53105 70.1712 25.8333 0004098 38.9683 321.1310 6.38964991 76667